Location: Cucq
(50.4773°N, 1.6202°E)
Time: 16:33:21
(UTC+00:00)

Spot 1 - Pass Details

Date: 07 August 2020
Orbit: 576 x 776 km, 98.7° (Epoch: 18 September)

Event Time Altitude Azimuth Distance (km) Brightness Sun altitude
Exits shadow 01:06:46 57° 147° (SSE) 702 4.0 -21.6°
Maximum altitude 01:07:33 80° 74° (ENE) 606 3.9 -21.5°
Drops below altitude 10° 01:11:40 10° 347° (NNW) 1,909 7.4 -21.3°
Sets 01:13:48 0° 346° (NNW) 2,807 8.4 -21.2°
